This demonstration page uses our WeatherBlox Daily Observations layout. Learn more.

Left ArrowRight Arrow

39.51506, -84.39828

Hourly Observations for January 12, 2019

Temp ( °F °C ) Dew Point ( °F °C ) Humidity (%) Winds ( mph kmh ) Pressure ( in mb ) Visibility ( mi km ) Precip ( " mm )
12:15 am 00:15 Cloudy 30 -1.1 20 -6.7 66 66 SE 3 6 30.39 1029 10 16 0.00 0.00
12:35 am 00:35 Cloudy 30 -1.2 20 -6.4 68 68 Calm 30.39 1029 10 16 0.00 0.00
12:55 am 00:55 Cloudy 30 -1.1 20 -6.4 68 68 ESE 3 6 30.39 1029 10 16 0.00 0.00
1:15 am 01:15 Cloudy 30 -1 20 -6.4 67 67 Calm 30.39 1029 10 16 0.00 0.00
1:35 am 01:35 Cloudy 30 -1 20 -6.5 67 67 ESE 3 6 30.39 1029 10 16 0.00 0.00
1:55 am 01:55 Cloudy 30 -1 20 -6.4 67 67 ESE 3 6 30.39 1029 10 16 0.00 0.00
2:15 am 02:15 Cloudy 30 -0.9 20 -6.5 66 66 ESE 3 6 30.39 1029 10 16 0.00 0.00
2:35 am 02:35 Cloudy 30 -0.9 20 -6.4 67 67 ESE 3 6 30.39 1029 10 16 0.00 0.00
2:55 am 02:55 Cloudy 30 -0.9 21 -6.3 67 67 ESE 3 6 30.39 1029 10 16 0.00 0.00
3:15 am 03:15 Cloudy with Light Snow 30 -1 21 -5.9 70 70 E 6 9 30.39 1029 10 16 0.00 0.00
3:35 am 03:35 Cloudy with Light Snow 29 -1.8 24 -4.6 81 81 E 7 11 30.39 1029 3 4 0.00 0.00
3:55 am 03:55 Cloudy with Light Snow 28 -2.1 25 -3.9 88 88 ENE 5 7 30.36 1028 2 3 0.00 0.00
4:15 am 04:15 Cloudy with Light Snow 28 -2.3 26 -3.5 92 92 ENE 8 13 30.36 1028 2 3 0.00 0.00
4:35 am 04:35 Cloudy with Light Snow 28 -2.3 26 -3.4 92 92 ENE 6 9 30.36 1028 2 2 0.00 0.00
4:55 am 04:55 Cloudy with Light Snow 28 -2.4 26 -3.4 93 93 ENE 5 7 30.36 1028 2 2 0.01 0.25
5:15 am 05:15 Cloudy with Light Snow 28 -2.4 26 -3.4 93 93 ENE 5 7 30.36 1028 1 2 0.00 0.00
5:35 am 05:35 Cloudy with Snow 28 -2.4 26 -3.3 94 94 ENE 6 9 30.36 1028 1 2 0.01 0.25
5:55 am 05:55 Cloudy with Light Snow 28 -2.3 26 -3.2 94 94 ENE 7 11 30.36 1028 1 2 0.01 0.25
6:15 am 06:15 Cloudy with Light Snow 28 -2.3 26 -3.2 94 94 NE 7 11 30.36 1028 2 2 0.01 0.25
6:35 am 06:35 Cloudy with Light Snow 28 -2.1 27 -3 94 94 NE 6 9 30.36 1028 2 3 0.01 0.25
6:55 am 06:55 Cloudy with Light Snow 28 -2.2 26 -3.1 94 94 NE 7 11 30.36 1028 2 3 0.02 0.51
7:15 am 07:15 Cloudy with Snow 28 -2.2 27 -3 94 94 NE 6 9 30.36 1028 1 2 0.01 0.25
7:35 am 07:35 Cloudy with Snow 28 -2.2 27 -3 94 94 ENE 5 7 30.36 1028 1 2 0.01 0.25
7:55 am 07:55 Cloudy with Snow 28 -2.3 26 -3.1 94 94 ENE 3 6 30.36 1028 1 1 0.02 0.51
8:15 am 08:15 Cloudy with Light Snow 28 -2.3 27 -3 95 95 ENE 5 7 30.36 1028 1 1 0.01 0.25
8:35 am 08:35 Cloudy with Light Snow 28 -2.2 26 -3.1 94 94 ENE 5 7 30.39 1029 1 1 0.02 0.51
8:55 am 08:55 Cloudy with Snow 28 -2.2 26 -3.1 94 94 ENE 5 7 30.39 1029 1 1 0.03 0.76
9:15 am 09:15 Cloudy with Snow 28 -2.3 26 -3.2 94 94 ENE 7 11 30.39 1029 1 1 0.01 0.25
9:35 am 09:35 Cloudy with Snow 28 -2.3 26 -3.2 94 94 ENE 6 9 30.39 1029 1 1 0.02 0.51
9:55 am 09:55 Cloudy with Light Snow 28 -2.1 26 -3.1 93 93 ENE 3 6 30.39 1029 1 2 0.03 0.76
10:15 am 10:15 Cloudy with Snow 28 -2.1 26 -3.1 93 93 E 6 9 30.39 1029 1 1 0.01 0.25
10:35 am 10:35 Cloudy with Light Snow 28 -2 26 -3.2 92 92 E 6 9 30.42 1030 1 1 0.02 0.51
10:55 am 10:55 Cloudy with Snow 28 -2 26 -3.1 92 92 ENE 5 7 30.42 1030 1 1 0.03 0.76
11:15 am 11:15 Cloudy with Light Snow 28 -2 27 -3 93 93 ENE 7 11 30.39 1029 1 1 0.00 0.00
11:35 am 11:35 Cloudy with Light Snow 29 -1.9 27 -3 92 92 ENE 7 11 30.39 1029 1 1 0.01 0.25
11:55 am 11:55 Cloudy with Light Snow 29 -1.7 27 -2.9 92 92 ENE 6 9 30.36 1028 2 2 0.01 0.25
12:15 pm 12:15 Cloudy with Light Snow 29 -1.5 27 -2.7 92 92 NE 7 11 30.36 1028 5 8 0.00 0.00
12:35 pm 12:35 Cloudy 30 -1.2 27 -2.7 90 90 ENE 6 9 30.36 1028 10 16 0.00 0.00
12:55 pm 12:55 Cloudy with Light Snow 30 -0.9 27 -2.7 88 88 ENE 8 13 30.33 1027 5 8 0.00 0.00
1:15 pm 13:15 Cloudy 31 -0.8 27 -2.6 88 88 E 5 7 30.33 1027 10 16 0.00 0.00
1:35 pm 13:35 Cloudy with Light Snow 31 -0.6 28 -2.5 87 87 ENE 5 7 30.33 1027 3 5 0.00 0.00
1:55 pm 13:55 Cloudy with Light Snow 31 -0.6 28 -2.4 88 88 ENE 6 9 30.33 1027 4 6 0.00 0.00
2:15 pm 14:15 Cloudy with Light Snow 31 -0.7 28 -2.1 90 90 ENE 7 11 30.30 1026 3 4 0.01 0.25
2:35 pm 14:35 Cloudy with Light Snow 31 -0.8 29 -1.7 94 94 ENE 7 11 30.30 1026 1 2 0.02 0.51
2:55 pm 14:55 Cloudy with Light Snow 31 -0.8 29 -1.8 93 93 ENE 5 7 30.30 1026 2 3 0.02 0.51
3:15 pm 15:15 Cloudy with Light Snow 31 -0.8 29 -1.6 94 94 ENE 6 9 30.30 1026 1 2 0.01 0.25
3:35 pm 15:35 Cloudy with Light Snow 31 -0.6 29 -1.6 93 93 ENE 7 11 30.30 1026 2 2 0.02 0.51
3:55 pm 15:55 Cloudy with Light Snow 31 -0.7 29 -1.6 94 94 ENE 7 11 30.30 1026 2 3 0.02 0.51
4:15 pm 16:15 Cloudy with Light Snow 31 -0.8 29 -1.6 94 94 ENE 6 9 30.30 1026 1 2 0.02 0.51
4:35 pm 16:35 Cloudy with Snow 30 -0.9 29 -1.5 96 96 ENE 5 7 30.30 1026 1 1 0.03 0.76
4:55 pm 16:55 Cloudy with Snow 30 -0.9 29 -1.4 96 96 NE 8 13 30.27 1025 1 1 0.06 1.52
5:15 pm 17:15 Cloudy with Light Snow 30 -0.9 29 -1.5 96 96 NE 8 13 30.27 1025 2 3 0.02 0.51
5:35 pm 17:35 Cloudy with Light Snow 30 -0.9 29 -1.7 94 94 NNE 14 22 30.24 1024 4 6 0.03 0.76
5:55 pm 17:55 Cloudy 31 -0.7 29 -1.7 93 93 E 5 7 30.27 1025 7 11 0.03 0.76
6:15 pm 18:15 Cloudy with Light Snow 31 -0.4 29 -1.5 92 92 E 5 7 30.30 1026 4 6 0.00 0.00
6:35 pm 18:35 Cloudy with Light Snow 31 -0.4 29 -1.4 93 93 ENE 6 9 30.30 1026 3 4 0.00 0.00
6:55 pm 18:55 Cloudy with Light Snow 31 -0.5 30 -1.3 94 94 ENE 6 9 30.30 1026 1 2 0.01 0.25
7:15 pm 19:15 Cloudy with Light Snow 31 -0.5 30 -1.1 96 96 NE 5 7 30.30 1026 3 4 0.00 0.00
7:35 pm 19:35 Cloudy with Light Snow 31 -0.5 30 -1.1 96 96 Calm 30.30 1026 2 3 0.00 0.00
7:55 pm 19:55 Cloudy with Light Snow 31 -0.6 30 -1.1 96 96 NE 5 7 30.30 1026 2 3 0.01 0.25
8:15 pm 20:15 Cloudy with Light Snow 31 -0.5 30 -1 96 96 NE 6 9 30.30 1026 2 3 0.01 0.25
8:35 pm 20:35 Cloudy with Light Snow 31 -0.4 30 -1 96 96 NE 8 13 30.27 1025 2 3 0.01 0.25
8:55 pm 20:55 Cloudy with Light Snow 31 -0.4 30 -0.9 96 96 NE 7 11 30.27 1025 2 3 0.02 0.51
9:15 pm 21:15 Cloudy with Light Snow 31 -0.4 30 -1 96 96 NNE 6 9 30.27 1025 4 6 0.00 0.00
9:35 pm 21:35 Cloudy with Light Snow 31 -0.4 30 -1.1 95 95 NNE 5 7 30.27 1025 7 11 0.00 0.00
9:55 pm 21:55 Cloudy with Light Snow 31 -0.4 30 -1.2 94 94 NNE 5 7 30.27 1025 4 6 0.00 0.00
10:15 pm 22:15 Cloudy with Light Snow 31 -0.4 30 -1.2 94 94 NNE 8 13 30.27 1025 3 4 0.00 0.00
10:35 pm 22:35 Cloudy with Light Snow 31 -0.5 30 -1.2 95 95 NNE 7 11 30.27 1025 3 5 0.00 0.00
10:55 pm 22:55 Cloudy with Light Snow 31 -0.6 29 -1.4 94 94 NNE 8 13 30.27 1025 7 11 0.00 0.00
11:15 pm 23:15 Cloudy 31 -0.7 29 -1.6 94 94 NE 9 15 30.24 1024 7 11 0.00 0.00
11:35 pm 23:35 Cloudy 31 -0.8 29 -1.9 92 92 NNE 10 17 30.24 1024 7 11 0.00 0.00
11:55 pm 23:55 Cloudy 30 -1 28 -2 93 93 NE 10 17 30.24 1024 7 11 0.00 0.00

Powered by AerisWeather